sat.trackr.live / text

‹ back to catalog

STARLINK-4368

NORAD 53234 · 2022-084AX

PAYLOAD ACTIVE UNKNOWN

§ Identity

Operator
Country
US
Launch date
2022-07-22
Launch site
AFWTR
Launch vehicle
Mass (kg)
RCS (m²)

Purposes: comms

External: N2YO · Heavens-Above · Gunter

§ Orbital elements

Epoch: 2026-09-20T00:44:39.429024Z

Period
93.69 min
Inclination
97.4736°
Eccentricity
0.0001275
Mean motion
15.36975058 rev/d
Perigee alt
454.2 km
Apogee alt
455.9 km
Semi-major
6,833.2 km
B*
6.7055e-6
RAAN
327.7038°
Arg perigee
74.2936°
Mean anomaly
285.8448°
Rev number
22,999

§ Raw data

STARLINK-43681 53234U 22084AX  26263.03101191  .00000160  00000+0  67055-5 0  99922 53234  97.4736 327.7038 0001275  74.2936 285.8448 15.36975058229990

JSON: /api/v1/satellites/53234 · /tle

For live sub-satellite position, see the globe view (requires WebGL).

§ Visibility from observer

Set your observer location to see the next 7 days of passes ≥ 10°. The values pass through the URL so the page stays shareable.

No JS? Fill the form by hand. The geolocation button needs JavaScript.